Time,TemperatureF,DewpointF,PressureIn,WindDirection,WindDirectionDegrees,WindSpeedMPH,WindSpeedGustMPH,Humidity,HourlyPrecipIn,Conditions,Clouds,dailyrainin,SoftwareType,DateUTC
2013-08-31 00:02:00,78.8,70.2,29.82,NW,313,0.0,12.0,75,0.00,,,0.00,Wunderground v.1.13,2013-08-31 05:02:00,
2013-08-31 00:07:00,78.6,70.0,29.81,NW,313,0.0,12.0,75,0.00,,,0.00,Wunderground v.1.13,2013-08-31 05:07:00,
2013-08-31 00:13:00,78.5,69.9,29.81,NW,313,0.0,12.0,75,0.00,,,0.00,Wunderground v.1.13,2013-08-31 05:13:00,
2013-08-31 00:18:00,78.3,69.7,29.81,NW,313,0.0,12.0,75,0.00,,,0.00,Wunderground v.1.13,2013-08-31 05:18:00,
2013-08-31 00:23:00,77.9,69.3,29.82,NW,313,0.0,12.0,75,0.00,,,0.00,Wunderground v.1.13,2013-08-31 05:23:00,
2013-08-31 00:29:00,77.7,69.1,29.82,NW,313,0.0,12.0,75,0.00,,,0.00,Wunderground v.1.13,2013-08-31 05:29:00,
2013-08-31 00:34:00,77.6,69.0,29.82,NW,313,0.0,12.0,75,0.00,,,0.00,Wunderground v.1.13,2013-08-31 05:34:00,
2013-08-31 00:39:00,77.6,69.0,29.81,NW,313,0.0,12.0,75,0.00,,,0.00,Wunderground v.1.13,2013-08-31 05:39:00,
2013-08-31 00:45:00,77.4,69.2,29.81,NW,313,0.0,12.0,76,0.00,,,0.00,Wunderground v.1.13,2013-08-31 05:45:00,
2013-08-31 00:50:00,77.4,69.2,29.81,NW,313,0.0,12.0,76,0.00,,,0.00,Wunderground v.1.13,2013-08-31 05:50:00,
2013-08-31 00:55:00,77.4,69.2,29.81,NW,313,0.0,12.0,76,0.00,,,0.00,Wunderground v.1.13,2013-08-31 05:55:00,
2013-08-31 01:00:00,77.4,68.9,29.81,NW,315,0.0,12.0,75,0.00,,,0.00,Wunderground v.1.13,2013-08-31 06:00:00,
2013-08-31 01:06:00,77.6,68.7,29.81,NW,315,0.0,12.0,74,0.00,,,0.00,Wunderground v.1.13,2013-08-31 06:06:00,
2013-08-31 01:11:00,77.6,69.0,29.81,NW,315,0.0,12.0,75,0.00,,,0.00,Wunderground v.1.13,2013-08-31 06:11:00,
2013-08-31 01:16:00,77.6,69.0,29.81,NW,315,0.0,12.0,75,0.00,,,0.00,Wunderground v.1.13,2013-08-31 06:16:00,
2013-08-31 01:22:00,77.6,69.4,29.80,NW,315,0.0,12.0,76,0.00,,,0.00,Wunderground v.1.13,2013-08-31 06:22:00,
2013-08-31 01:27:00,77.6,69.0,29.80,NW,315,0.0,12.0,75,0.00,,,0.00,Wunderground v.1.13,2013-08-31 06:27:00,
2013-08-31 01:32:00,77.7,69.1,29.80,NW,315,0.0,12.0,75,0.00,,,0.00,Wunderground v.1.13,2013-08-31 06:32:00,
2013-08-31 01:38:00,77.9,69.3,29.81,NW,315,0.0,12.0,75,0.00,,,0.00,Wunderground v.1.13,2013-08-31 06:38:00,
2013-08-31 01:43:00,77.9,69.3,29.81,NW,315,0.0,12.0,75,0.00,,,0.00,Wunderground v.1.13,2013-08-31 06:43:00,
2013-08-31 01:48:00,77.7,69.1,29.81,NW,315,0.0,12.0,75,0.00,,,0.00,Wunderground v.1.13,2013-08-31 06:48:00,
2013-08-31 01:53:00,77.7,69.1,29.81,NW,315,0.0,12.0,75,0.00,,,0.00,Wunderground v.1.13,2013-08-31 06:53:00,
2013-08-31 01:59:00,77.7,69.5,29.81,NW,315,0.0,12.0,76,0.00,,,0.00,Wunderground v.1.13,2013-08-31 06:59:00,
2013-08-31 02:04:00,77.7,69.5,29.81,NW,315,0.0,12.0,76,0.00,,,0.00,Wunderground v.1.13,2013-08-31 07:04:00,
2013-08-31 02:09:00,77.9,69.3,29.81,NW,315,0.0,12.0,75,0.00,,,0.00,Wunderground v.1.13,2013-08-31 07:09:00,
2013-08-31 02:14:00,77.9,69.3,29.81,NW,315,0.0,12.0,75,0.00,,,0.00,Wunderground v.1.13,2013-08-31 07:14:00,
2013-08-31 02:19:00,78.1,69.5,29.81,NW,315,0.0,12.0,75,0.00,,,0.00,Wunderground v.1.13,2013-08-31 07:19:00,
2013-08-31 02:24:00,78.1,69.5,29.81,NW,315,0.0,12.0,75,0.00,,,0.00,Wunderground v.1.13,2013-08-31 07:24:00,
2013-08-31 02:29:00,78.3,69.3,29.81,NW,315,0.0,12.0,74,0.00,,,0.00,Wunderground v.1.13,2013-08-31 07:29:00,
2013-08-31 02:34:00,78.3,69.3,29.81,NW,315,0.0,12.0,74,0.00,,,0.00,Wunderground v.1.13,2013-08-31 07:34:00,
2013-08-31 02:39:00,78.3,69.3,29.80,NW,315,0.0,12.0,74,0.00,,,0.00,Wunderground v.1.13,2013-08-31 07:39:00,
2013-08-31 02:44:00,78.3,69.3,29.80,NW,315,0.0,12.0,74,0.00,,,0.00,Wunderground v.1.13,2013-08-31 07:44:00,
2013-08-31 02:49:00,78.3,69.3,29.80,NW,315,0.0,12.0,74,0.00,,,0.00,Wunderground v.1.13,2013-08-31 07:49:00,
2013-08-31 02:54:00,78.3,69.3,29.80,NW,315,0.0,12.0,74,0.00,,,0.00,Wunderground v.1.13,2013-08-31 07:54:00,
2013-08-31 02:59:00,78.3,69.3,29.80,NW,315,0.0,12.0,74,0.00,,,0.00,Wunderground v.1.13,2013-08-31 07:59:00,
2013-08-31 03:04:00,78.3,69.3,29.80,NW,315,0.0,12.0,74,0.00,,,0.00,Wunderground v.1.13,2013-08-31 08:04:00,
2013-08-31 03:09:00,78.3,69.3,29.80,NW,315,0.0,12.0,74,0.00,,,0.00,Wunderground v.1.13,2013-08-31 08:09:00,
2013-08-31 03:15:00,78.3,69.3,29.80,NW,315,0.0,12.0,74,0.00,,,0.00,Wunderground v.1.13,2013-08-31 08:15:00,
2013-08-31 03:20:00,78.3,69.3,29.80,NW,315,0.0,12.0,74,0.00,,,0.00,Wunderground v.1.13,2013-08-31 08:20:00,
2013-08-31 03:25:00,78.1,69.1,29.79,NW,315,0.0,12.0,74,0.00,,,0.00,Wunderground v.1.13,2013-08-31 08:25:00,
2013-08-31 03:31:00,78.1,69.1,29.79,NW,315,0.0,12.0,74,0.00,,,0.00,Wunderground v.1.13,2013-08-31 08:31:00,
2013-08-31 03:36:00,78.1,69.1,29.80,NW,315,0.0,12.0,74,0.00,,,0.00,Wunderground v.1.13,2013-08-31 08:36:00,
2013-08-31 03:41:00,78.1,69.1,29.80,NW,315,0.0,12.0,74,0.00,,,0.00,Wunderground v.1.13,2013-08-31 08:41:00,
2013-08-31 03:46:00,77.9,68.9,29.80,NNW,332,0.0,12.0,74,0.00,,,0.00,Wunderground v.1.13,2013-08-31 08:46:00,
2013-08-31 03:52:00,77.9,68.9,29.79,NNW,332,0.0,12.0,74,0.00,,,0.00,Wunderground v.1.13,2013-08-31 08:52:00,
2013-08-31 03:57:00,77.9,68.9,29.79,NNW,332,0.0,12.0,74,0.00,,,0.00,Wunderground v.1.13,2013-08-31 08:57:00,
2013-08-31 04:02:00,77.9,68.9,29.79,NNW,332,0.0,12.0,74,0.00,,,0.00,Wunderground v.1.13,2013-08-31 09:02:00,
2013-08-31 04:08:00,77.9,68.9,29.79,West,275,0.0,12.0,74,0.00,,,0.00,Wunderground v.1.13,2013-08-31 09:08:00,
2013-08-31 04:13:00,77.7,68.7,29.79,West,277,0.0,12.0,74,0.00,,,0.00,Wunderground v.1.13,2013-08-31 09:13:00,
2013-08-31 04:18:00,77.7,69.1,29.79,WNW,296,0.0,12.0,75,0.00,,,0.00,Wunderground v.1.13,2013-08-31 09:18:00,
2013-08-31 04:23:00,77.7,68.7,29.79,NW,304,0.0,12.0,74,0.00,,,0.00,Wunderground v.1.13,2013-08-31 09:23:00,
2013-08-31 04:29:00,77.7,68.7,29.79,NW,323,1.0,12.0,74,0.00,,,0.00,Wunderground v.1.13,2013-08-31 09:29:00,
2013-08-31 04:34:00,77.7,68.7,29.79,NW,319,0.0,12.0,74,0.00,,,0.00,Wunderground v.1.13,2013-08-31 09:34:00,
2013-08-31 04:39:00,77.7,68.7,29.80,NW,320,0.0,12.0,74,0.00,,,0.00,Wunderground v.1.13,2013-08-31 09:39:00,
2013-08-31 04:44:00,77.7,68.7,29.80,NW,323,1.0,12.0,74,0.00,,,0.00,Wunderground v.1.13,2013-08-31 09:44:00,
2013-08-31 04:49:00,77.7,68.7,29.80,NNW,332,1.0,12.0,74,0.00,,,0.00,Wunderground v.1.13,2013-08-31 09:49:00,
2013-08-31 04:55:00,77.7,68.7,29.80,North,359,0.0,12.0,74,0.00,,,0.00,Wunderground v.1.13,2013-08-31 09:55:00,
2013-08-31 05:00:00,77.7,68.7,29.80,North,354,1.0,12.0,74,0.00,,,0.00,Wunderground v.1.13,2013-08-31 10:00:00,
2013-08-31 05:05:00,77.6,68.7,29.80,NNW,337,1.0,1.0,74,0.00,,,0.00,Wunderground v.1.13,2013-08-31 10:05:00,
2013-08-31 05:11:00,77.6,68.7,29.81,North,352,1.0,1.0,74,0.00,,,0.00,Wunderground v.1.13,2013-08-31 10:11:00,
2013-08-31 05:16:00,77.6,68.7,29.81,NNW,343,0.0,12.0,74,0.00,,,0.00,Wunderground v.1.13,2013-08-31 10:16:00,
2013-08-31 05:21:00,77.4,68.9,29.81,NNW,347,0.0,12.0,75,0.00,,,0.00,Wunderground v.1.13,2013-08-31 10:21:00,
2013-08-31 05:27:00,77.6,69.0,29.81,NW,319,1.0,12.0,75,0.00,,,0.00,Wunderground v.1.13,2013-08-31 10:27:00,
2013-08-31 05:32:00,77.6,69.0,29.81,NW,311,1.0,12.0,75,0.00,,,0.00,Wunderground v.1.13,2013-08-31 10:32:00,
2013-08-31 05:37:00,77.6,69.0,29.81,NNW,333,1.0,12.0,75,0.00,,,0.00,Wunderground v.1.13,2013-08-31 10:37:00,
2013-08-31 05:42:00,77.6,69.0,29.81,NW,322,1.0,12.0,75,0.00,,,0.00,Wunderground v.1.13,2013-08-31 10:42:00,
2013-08-31 05:48:00,77.4,68.9,29.81,North,353,0.0,12.0,75,0.00,,,0.00,Wunderground v.1.13,2013-08-31 10:48:00,
2013-08-31 05:53:00,77.4,68.9,29.81,North,353,0.0,12.0,75,0.00,,,0.00,Wunderground v.1.13,2013-08-31 10:53:00,
2013-08-31 05:58:00,77.4,68.9,29.81,NNW,339,0.0,12.0,75,0.00,,,0.00,Wunderground v.1.13,2013-08-31 10:58:00,
2013-08-31 06:03:00,77.2,68.7,29.81,NNW,339,0.0,12.0,75,0.00,,,0.00,Wunderground v.1.13,2013-08-31 11:03:00,
2013-08-31 06:09:00,77.2,68.7,29.81,NNW,339,0.0,12.0,75,0.00,,,0.00,Wunderground v.1.13,2013-08-31 11:09:00,
2013-08-31 06:14:00,77.0,68.5,29.81,NNW,339,0.0,12.0,75,0.00,,,0.00,Wunderground v.1.13,2013-08-31 11:14:00,
2013-08-31 06:19:00,77.0,68.9,29.81,NNW,339,0.0,12.0,76,0.00,,,0.00,Wunderground v.1.13,2013-08-31 11:19:00,
2013-08-31 06:25:00,77.0,68.9,29.82,NNW,339,0.0,12.0,76,0.00,,,0.00,Wunderground v.1.13,2013-08-31 11:25:00,
2013-08-31 06:30:00,77.0,68.9,29.82,NNW,339,0.0,12.0,76,0.00,,,0.00,Wunderground v.1.13,2013-08-31 11:30:00,
2013-08-31 06:35:00,77.0,68.9,29.82,NNW,333,1.0,1.0,76,0.00,,,0.00,Wunderground v.1.13,2013-08-31 11:35:00,
2013-08-31 06:41:00,77.0,69.2,29.83,NNW,333,1.0,1.0,77,0.00,,,0.00,Wunderground v.1.13,2013-08-31 11:41:00,
2013-08-31 06:46:00,77.0,69.2,29.83,NNW,333,0.0,12.0,77,0.00,,,0.00,Wunderground v.1.13,2013-08-31 11:46:00,
2013-08-31 06:51:00,77.0,68.9,29.83,NNW,333,0.0,12.0,76,0.00,,,0.00,Wunderground v.1.13,2013-08-31 11:51:00,
2013-08-31 06:56:00,77.0,68.9,29.83,NW,323,0.0,12.0,76,0.00,,,0.00,Wunderground v.1.13,2013-08-31 11:56:00,
2013-08-31 07:02:00,77.2,69.0,29.83,NNW,337,0.0,12.0,76,0.00,,,0.00,Wunderground v.1.13,2013-08-31 12:02:00,
2013-08-31 07:07:00,77.2,69.0,29.84,NNW,344,0.0,12.0,76,0.00,,,0.00,Wunderground v.1.13,2013-08-31 12:07:00,
2013-08-31 07:12:00,77.0,68.9,29.84,NNW,344,0.0,12.0,76,0.00,,,0.00,Wunderground v.1.13,2013-08-31 12:12:00,
2013-08-31 07:19:00,77.0,69.2,29.84,North,349,0.0,12.0,77,0.00,,,0.00,Wunderground v.1.13,2013-08-31 12:19:00,
2013-08-31 07:24:00,77.0,69.2,29.84,NNW,339,0.0,12.0,77,0.00,,,0.00,Wunderground v.1.13,2013-08-31 12:24:00,
2013-08-31 07:29:00,77.0,69.2,29.84,NNW,339,0.0,12.0,77,0.00,,,0.00,Wunderground v.1.13,2013-08-31 12:29:00,
2013-08-31 07:35:00,77.0,69.2,29.84,NNW,339,0.0,12.0,77,0.00,,,0.00,Wunderground v.1.13,2013-08-31 12:35:00,
2013-08-31 07:40:00,77.0,69.2,29.85,North,0,0.0,12.0,77,0.00,,,0.00,Wunderground v.1.13,2013-08-31 12:40:00,
2013-08-31 07:45:00,77.0,69.2,29.85,North,359,0.0,12.0,77,0.00,,,0.00,Wunderground v.1.13,2013-08-31 12:45:00,
2013-08-31 07:50:00,77.2,69.8,29.85,NNW,332,1.0,1.0,78,0.00,,,0.00,Wunderground v.1.13,2013-08-31 12:50:00,
2013-08-31 07:55:00,77.2,69.4,29.85,NNW,333,1.0,1.0,77,0.00,,,0.00,Wunderground v.1.13,2013-08-31 12:55:00,
2013-08-31 08:01:00,77.4,69.6,29.85,NW,325,2.0,12.0,77,0.00,,,0.00,Wunderground v.1.13,2013-08-31 13:01:00,
2013-08-31 08:06:00,77.6,70.2,29.85,NNW,329,2.0,12.0,78,0.00,,,0.00,Wunderground v.1.13,2013-08-31 13:06:00,
2013-08-31 08:11:00,77.7,70.3,29.85,NNW,330,1.0,12.0,78,0.00,,,0.00,Wunderground v.1.13,2013-08-31 13:11:00,
2013-08-31 08:16:00,77.9,70.5,29.85,NW,316,0.0,12.0,78,0.00,,,0.00,Wunderground v.1.13,2013-08-31 13:16:00,
2013-08-31 08:22:00,78.3,70.5,29.86,NNW,332,0.0,12.0,77,0.00,,,0.00,Wunderground v.1.13,2013-08-31 13:22:00,
2013-08-31 08:27:00,78.5,70.7,29.86,NNW,328,0.0,12.0,77,0.00,,,0.00,Wunderground v.1.13,2013-08-31 13:27:00,
2013-08-31 08:32:00,78.6,70.8,29.86,NW,325,0.0,12.0,77,0.00,,,0.00,Wunderground v.1.13,2013-08-31 13:32:00,
2013-08-31 08:38:00,78.8,70.6,29.86,North,359,0.0,12.0,76,0.00,,,0.00,Wunderground v.1.13,2013-08-31 13:38:00,
2013-08-31 08:43:00,79.0,70.8,29.86,NW,326,0.0,12.0,76,0.00,,,0.00,Wunderground v.1.13,2013-08-31 13:43:00,
2013-08-31 08:48:00,79.4,71.2,29.86,NW,325,0.0,12.0,76,0.00,,,0.00,Wunderground v.1.13,2013-08-31 13:48:00,
2013-08-31 08:54:00,79.6,71.0,29.86,NW,320,0.0,12.0,75,0.00,,,0.00,Wunderground v.1.13,2013-08-31 13:54:00,
2013-08-31 08:59:00,79.8,71.2,29.86,NNW,344,0.0,12.0,75,0.00,,,0.00,Wunderground v.1.13,2013-08-31 13:59:00,
2013-08-31 09:04:00,79.9,70.9,29.86,NNW,336,0.0,12.0,74,0.00,,,0.00,Wunderground v.1.13,2013-08-31 14:04:00,
2013-08-31 09:09:00,80.1,71.1,29.86,NW,316,0.0,12.0,74,0.00,,,0.00,Wunderground v.1.13,2013-08-31 14:09:00,
2013-08-31 09:15:00,80.3,71.3,29.86,North,350,1.0,12.0,74,0.00,,,0.00,Wunderground v.1.13,2013-08-31 14:15:00,
2013-08-31 09:20:00,80.7,71.6,29.86,NNW,329,1.0,1.0,74,0.00,,,0.00,Wunderground v.1.13,2013-08-31 14:20:00,
2013-08-31 09:25:00,80.9,71.4,29.86,NNW,342,1.0,1.0,73,0.00,,,0.00,Wunderground v.1.13,2013-08-31 14:25:00,
2013-08-31 09:31:00,81.4,71.9,29.86,North,10,1.0,12.0,73,0.00,,,0.00,Wunderground v.1.13,2013-08-31 14:31:00,
2013-08-31 09:36:00,81.8,71.9,29.86,NNW,332,0.0,12.0,72,0.00,,,0.00,Wunderground v.1.13,2013-08-31 14:36:00,
2013-08-31 09:41:00,82.0,71.7,29.86,NNW,333,1.0,12.0,71,0.00,,,0.00,Wunderground v.1.13,2013-08-31 14:41:00,
2013-08-31 09:47:00,82.2,71.9,29.86,NNW,333,0.0,12.0,71,0.00,,,0.00,Wunderground v.1.13,2013-08-31 14:47:00,
2013-08-31 09:52:00,82.6,72.2,29.86,NW,316,1.0,12.0,71,0.00,,,0.00,Wunderground v.1.13,2013-08-31 14:52:00,
2013-08-31 09:57:00,82.8,72.0,29.86,NNE,24,1.0,12.0,70,0.00,,,0.00,Wunderground v.1.13,2013-08-31 14:57:00,
2013-08-31 10:03:00,83.2,72.0,29.86,NNE,24,2.0,12.0,69,0.00,,,0.00,Wunderground v.1.13,2013-08-31 15:03:00,
2013-08-31 10:08:00,83.6,71.9,29.86,North,3,2.0,12.0,68,0.00,,,0.00,Wunderground v.1.13,2013-08-31 15:08:00,
2013-08-31 10:13:00,83.8,72.1,29.86,NNE,17,0.0,12.0,68,0.00,,,0.00,Wunderground v.1.13,2013-08-31 15:13:00,
2013-08-31 10:19:00,84.0,71.9,29.86,NNE,23,0.0,12.0,67,0.00,,,0.00,Wunderground v.1.13,2013-08-31 15:19:00,
2013-08-31 10:24:00,84.1,72.0,29.86,NE,34,1.0,12.0,67,0.00,,,0.00,Wunderground v.1.13,2013-08-31 15:24:00,
2013-08-31 10:29:00,84.3,72.1,29.86,North,4,1.0,12.0,67,0.00,,,0.00,Wunderground v.1.13,2013-08-31 15:29:00,
2013-08-31 10:34:00,84.5,72.3,29.86,NNE,23,1.0,12.0,67,0.00,,,0.00,Wunderground v.1.13,2013-08-31 15:34:00,
2013-08-31 10:40:00,84.5,72.3,29.86,NNE,17,0.0,12.0,67,0.00,,,0.00,Wunderground v.1.13,2013-08-31 15:40:00,
2013-08-31 10:45:00,84.7,73.0,29.86,North,8,0.0,12.0,68,0.00,,,0.00,Wunderground v.1.13,2013-08-31 15:45:00,
2013-08-31 10:50:00,84.7,73.0,29.86,North,0,0.0,12.0,68,0.00,,,0.00,Wunderground v.1.13,2013-08-31 15:50:00,
2013-08-31 10:56:00,84.7,73.0,29.86,North,359,0.0,12.0,68,0.00,,,0.00,Wunderground v.1.13,2013-08-31 15:56:00,
2013-08-31 11:01:00,84.7,72.5,29.86,North,359,0.0,12.0,67,0.00,,,0.00,Wunderground v.1.13,2013-08-31 16:01:00,
2013-08-31 11:06:00,84.7,72.5,29.86,NNW,329,0.0,12.0,67,0.00,,,0.00,Wunderground v.1.13,2013-08-31 16:06:00,
2013-08-31 11:12:00,84.9,72.7,29.86,NNW,328,0.0,12.0,67,0.00,,,0.00,Wunderground v.1.13,2013-08-31 16:12:00,
2013-08-31 11:17:00,84.9,72.7,29.86,NNW,328,0.0,12.0,67,0.00,,,0.00,Wunderground v.1.13,2013-08-31 16:17:00,
2013-08-31 11:22:00,85.1,72.9,29.86,NNW,328,0.0,12.0,67,0.00,,,0.00,Wunderground v.1.13,2013-08-31 16:22:00,
2013-08-31 11:28:00,85.3,73.1,29.86,NNW,328,0.0,12.0,67,0.00,,,0.00,Wunderground v.1.13,2013-08-31 16:28:00,
2013-08-31 11:33:00,85.7,73.9,29.86,NNW,328,0.0,12.0,68,0.00,,,0.00,Wunderground v.1.13,2013-08-31 16:33:00,
2013-08-31 11:38:00,85.9,74.1,29.86,NNW,328,0.0,12.0,68,0.00,,,0.00,Wunderground v.1.13,2013-08-31 16:38:00,
2013-08-31 11:43:00,86.1,73.9,29.86,NNW,328,0.0,12.0,67,0.00,,,0.00,Wunderground v.1.13,2013-08-31 16:43:00,
2013-08-31 11:49:00,86.5,73.8,29.86,NNW,328,0.0,12.0,66,0.00,,,0.00,Wunderground v.1.13,2013-08-31 16:49:00,
2013-08-31 11:54:00,86.7,73.5,29.86,NNW,328,0.0,12.0,65,0.00,,,0.00,Wunderground v.1.13,2013-08-31 16:54:00,
2013-08-31 11:59:00,87.2,73.5,29.86,NNE,23,0.0,12.0,64,0.00,,,0.00,Wunderground v.1.13,2013-08-31 16:59:00,
2013-08-31 12:06:00,87.2,73.5,29.86,NNE,23,0.0,12.0,64,0.00,,,0.00,Wunderground v.1.13,2013-08-31 17:06:00,
2013-08-31 12:11:00,87.4,74.2,29.85,WSW,258,0.0,12.0,65,0.00,,,0.00,Wunderground v.1.13,2013-08-31 17:11:00,
2013-08-31 12:16:00,87.2,74.9,29.85,SE,130,0.0,12.0,67,0.00,,,0.00,Wunderground v.1.13,2013-08-31 17:16:00,
2013-08-31 12:22:00,87.2,75.3,29.84,SSE,161,0.0,12.0,68,0.00,,,0.00,Wunderground v.1.13,2013-08-31 17:22:00,
2013-08-31 12:27:00,87.2,75.3,29.84,SE,133,0.0,12.0,68,0.00,,,0.00,Wunderground v.1.13,2013-08-31 17:27:00,
2013-08-31 12:32:00,87.2,74.9,29.84,East,88,0.0,12.0,67,0.00,,,0.00,Wunderground v.1.13,2013-08-31 17:32:00,
2013-08-31 12:37:00,87.2,74.9,29.84,NNE,24,0.0,12.0,67,0.00,,,0.00,Wunderground v.1.13,2013-08-31 17:37:00,
2013-08-31 12:43:00,87.4,75.1,29.84,WNW,289,0.0,12.0,67,0.00,,,0.00,Wunderground v.1.13,2013-08-31 17:43:00,
2013-08-31 12:48:00,87.6,75.3,29.84,East,82,0.0,12.0,67,0.00,,,0.00,Wunderground v.1.13,2013-08-31 17:48:00,
2013-08-31 12:54:00,87.4,75.1,29.84,North,357,1.0,12.0,67,0.00,,,0.00,Wunderground v.1.13,2013-08-31 17:54:00,
2013-08-31 12:59:00,87.4,75.1,29.84,NW,320,1.0,12.0,67,0.00,,,0.00,Wunderground v.1.13,2013-08-31 17:59:00,
2013-08-31 13:04:00,87.4,75.5,29.84,WNW,302,1.0,12.0,68,0.00,,,0.00,Wunderground v.1.13,2013-08-31 18:04:00,
2013-08-31 13:09:00,87.8,76.4,29.83,NNE,25,0.0,12.0,69,0.00,,,0.00,Wunderground v.1.13,2013-08-31 18:09:00,
2013-08-31 13:15:00,87.8,76.4,29.83,NW,322,0.0,12.0,69,0.00,,,0.00,Wunderground v.1.13,2013-08-31 18:15:00,
2013-08-31 13:20:00,87.6,75.7,29.83,NW,316,1.0,1.0,68,0.00,,,0.00,Wunderground v.1.13,2013-08-31 18:20:00,
2013-08-31 13:25:00,87.2,75.8,29.83,NW,313,2.0,12.0,69,0.00,,,0.00,Wunderground v.1.13,2013-08-31 18:25:00,
2013-08-31 13:31:00,87.0,75.6,29.83,NW,308,2.0,12.0,69,0.00,,,0.00,Wunderground v.1.13,2013-08-31 18:31:00,
2013-08-31 13:36:00,87.0,75.6,29.82,NNE,21,1.0,12.0,69,0.00,,,0.00,Wunderground v.1.13,2013-08-31 18:36:00,
2013-08-31 13:41:00,87.2,75.8,29.82,SE,137,0.0,12.0,69,0.00,,,0.00,Wunderground v.1.13,2013-08-31 18:41:00,
2013-08-31 13:46:00,87.6,76.2,29.82,South,175,0.0,12.0,69,0.00,,,0.00,Wunderground v.1.13,2013-08-31 18:46:00,
2013-08-31 13:51:00,87.6,75.3,29.82,NW,304,1.0,12.0,67,0.00,,,0.00,Wunderground v.1.13,2013-08-31 18:51:00,
2013-08-31 13:57:00,87.8,75.9,29.82,WNW,298,2.0,12.0,68,0.00,,,0.00,Wunderground v.1.13,2013-08-31 18:57:00,
2013-08-31 14:02:00,88.0,75.7,29.82,WNW,284,0.0,12.0,67,0.00,,,0.00,Wunderground v.1.13,2013-08-31 19:02:00,
2013-08-31 14:07:00,88.2,75.9,29.82,WNW,294,0.0,12.0,67,0.00,,,0.00,Wunderground v.1.13,2013-08-31 19:07:00,
2013-08-31 14:13:00,88.4,75.6,29.82,WNW,294,0.0,12.0,66,0.00,,,0.00,Wunderground v.1.13,2013-08-31 19:13:00,
2013-08-31 14:18:00,88.6,75.8,29.82,NW,308,1.0,12.0,66,0.00,,,0.00,Wunderground v.1.13,2013-08-31 19:18:00,
2013-08-31 14:23:00,88.6,75.8,29.81,South,181,1.0,12.0,66,0.00,,,0.00,Wunderground v.1.13,2013-08-31 19:23:00,
2013-08-31 14:28:00,88.8,75.5,29.81,NW,304,1.0,12.0,65,0.00,,,0.00,Wunderground v.1.13,2013-08-31 19:28:00,
2013-08-31 14:34:00,89.0,75.7,29.81,SW,224,0.0,12.0,65,0.00,,,0.00,Wunderground v.1.13,2013-08-31 19:34:00,
2013-08-31 14:40:00,89.7,76.4,29.80,WNW,289,0.0,12.0,65,0.00,,,0.00,Wunderground v.1.13,2013-08-31 19:40:00,
2013-08-31 14:45:00,89.9,76.6,29.80,WNW,289,0.0,12.0,65,0.00,,,0.00,Wunderground v.1.13,2013-08-31 19:45:00,
2013-08-31 14:50:00,90.1,76.3,29.80,WNW,295,0.0,12.0,64,0.00,,,0.00,Wunderground v.1.13,2013-08-31 19:50:00,
2013-08-31 14:55:00,90.1,76.3,29.78,NW,304,0.0,12.0,64,0.00,,,0.00,Wunderground v.1.13,2013-08-31 19:55:00,
2013-08-31 15:01:00,89.7,75.4,29.78,NW,311,1.0,12.0,63,0.00,,,0.00,Wunderground v.1.13,2013-08-31 20:01:00,
2013-08-31 15:06:00,89.7,75.4,29.78,North,353,0.0,12.0,63,0.00,,,0.00,Wunderground v.1.13,2013-08-31 20:06:00,
2013-08-31 15:11:00,89.9,75.6,29.78,NNW,339,0.0,12.0,63,0.00,,,0.00,Wunderground v.1.13,2013-08-31 20:11:00,
2013-08-31 15:17:00,90.1,75.3,29.78,North,359,0.0,12.0,62,0.00,,,0.00,Wunderground v.1.13,2013-08-31 20:17:00,
2013-08-31 15:22:00,90.1,74.8,29.78,North,0,0.0,12.0,61,0.00,,,0.00,Wunderground v.1.13,2013-08-31 20:22:00,
2013-08-31 15:27:00,90.1,74.8,29.78,North,0,0.0,12.0,61,0.00,,,0.00,Wunderground v.1.13,2013-08-31 20:27:00,
2013-08-31 15:33:00,90.3,75.5,29.78,North,0,0.0,12.0,62,0.00,,,0.00,Wunderground v.1.13,2013-08-31 20:33:00,
2013-08-31 15:38:00,90.7,75.9,29.78,North,0,0.0,12.0,62,0.00,,,0.00,Wunderground v.1.13,2013-08-31 20:38:00,
2013-08-31 15:43:00,90.5,76.7,29.78,NNE,23,0.0,12.0,64,0.00,,,0.00,Wunderground v.1.13,2013-08-31 20:43:00,
2013-08-31 15:49:00,90.1,76.7,29.78,ENE,62,0.0,12.0,65,0.00,,,0.00,Wunderground v.1.13,2013-08-31 20:49:00,
2013-08-31 15:54:00,89.9,77.0,29.78,ENE,62,0.0,12.0,66,0.00,,,0.00,Wunderground v.1.13,2013-08-31 20:54:00,
2013-08-31 15:59:00,89.7,77.3,29.78,ENE,62,0.0,12.0,67,0.00,,,0.00,Wunderground v.1.13,2013-08-31 20:59:00,
2013-08-31 16:04:00,89.5,77.1,29.78,ENE,62,0.0,12.0,67,0.00,,,0.00,Wunderground v.1.13,2013-08-31 21:04:00,
2013-08-31 16:10:00,89.3,77.3,29.78,ENE,62,0.0,12.0,68,0.00,,,0.00,Wunderground v.1.13,2013-08-31 21:10:00,
2013-08-31 16:15:00,89.0,77.1,29.78,SE,138,0.0,12.0,68,0.00,,,0.00,Wunderground v.1.13,2013-08-31 21:15:00,
2013-08-31 16:21:00,88.2,75.4,29.78,West,267,0.0,12.0,66,0.00,,,0.00,Wunderground v.1.13,2013-08-31 21:21:00,
2013-08-31 16:26:00,87.6,75.3,29.78,West,267,0.0,12.0,67,0.00,,,0.00,Wunderground v.1.13,2013-08-31 21:26:00,
2013-08-31 16:31:00,87.0,74.3,29.78,WNW,282,0.0,12.0,66,0.00,,,0.00,Wunderground v.1.13,2013-08-31 21:31:00,
2013-08-31 16:37:00,86.3,73.6,29.78,WNW,282,0.0,12.0,66,0.00,,,0.00,Wunderground v.1.13,2013-08-31 21:37:00,
2013-08-31 16:42:00,85.7,73.5,29.78,WNW,282,0.0,12.0,67,0.00,,,0.00,Wunderground v.1.13,2013-08-31 21:42:00,
2013-08-31 16:48:00,85.3,73.1,29.78,NW,304,0.0,12.0,67,0.00,,,0.00,Wunderground v.1.13,2013-08-31 21:48:00,
2013-08-31 16:53:00,84.9,72.7,29.77,WNW,302,0.0,12.0,67,0.00,,,0.00,Wunderground v.1.13,2013-08-31 21:53:00,
2013-08-31 16:58:00,84.3,73.0,29.77,WNW,284,1.0,12.0,69,0.00,,,0.00,Wunderground v.1.13,2013-08-31 21:58:00,
2013-08-31 17:04:00,84.0,73.2,29.77,WNW,287,0.0,12.0,70,0.00,,,0.00,Wunderground v.1.13,2013-08-31 22:04:00,
2013-08-31 17:09:00,83.8,73.0,29.77,WNW,302,0.0,12.0,70,0.00,,,0.00,Wunderground v.1.13,2013-08-31 22:09:00,
2013-08-31 17:14:00,83.4,72.2,29.77,WNW,302,0.0,12.0,69,0.00,,,0.00,Wunderground v.1.13,2013-08-31 22:14:00,
2013-08-31 17:19:00,83.4,72.6,29.77,WNW,302,0.0,12.0,70,0.00,,,0.00,Wunderground v.1.13,2013-08-31 22:19:00,
2013-08-31 17:24:00,83.4,72.6,29.76,WNW,302,0.0,12.0,70,0.00,,,0.00,Wunderground v.1.13,2013-08-31 22:24:00,
2013-08-31 17:30:00,83.8,73.4,29.76,WNW,302,0.0,12.0,71,0.00,,,0.00,Wunderground v.1.13,2013-08-31 22:30:00,
2013-08-31 17:35:00,84.0,73.6,29.76,WNW,302,0.0,12.0,71,0.00,,,0.00,Wunderground v.1.13,2013-08-31 22:35:00,
2013-08-31 17:41:00,84.1,74.1,29.75,WNW,302,0.0,12.0,72,0.00,,,0.00,Wunderground v.1.13,2013-08-31 22:41:00,
2013-08-31 17:46:00,84.3,74.3,29.75,WNW,302,0.0,12.0,72,0.00,,,0.00,Wunderground v.1.13,2013-08-31 22:46:00,
2013-08-31 17:51:00,84.5,74.5,29.76,WNW,302,0.0,12.0,72,0.00,,,0.00,Wunderground v.1.13,2013-08-31 22:51:00,
2013-08-31 17:57:00,84.7,74.7,29.76,WNW,302,0.0,12.0,72,0.00,,,0.00,Wunderground v.1.13,2013-08-31 22:57:00,
2013-08-31 18:02:00,84.9,74.9,29.76,WNW,302,0.0,12.0,72,0.00,,,0.00,Wunderground v.1.13,2013-08-31 23:02:00,
2013-08-31 18:07:00,84.9,74.9,29.77,WNW,302,0.0,12.0,72,0.00,,,0.00,Wunderground v.1.13,2013-08-31 23:07:00,
2013-08-31 18:13:00,84.7,74.7,29.77,WNW,302,0.0,12.0,72,0.00,,,0.00,Wunderground v.1.13,2013-08-31 23:13:00,
2013-08-31 18:18:00,84.7,74.7,29.77,WNW,302,0.0,12.0,72,0.00,,,0.00,Wunderground v.1.13,2013-08-31 23:18:00,
2013-08-31 18:23:00,84.9,74.9,29.77,WNW,302,0.0,12.0,72,0.00,,,0.00,Wunderground v.1.13,2013-08-31 23:23:00,
2013-08-31 18:29:00,84.7,74.7,29.77,WNW,302,0.0,12.0,72,0.00,,,0.00,Wunderground v.1.13,2013-08-31 23:29:00,
2013-08-31 18:34:00,84.7,74.7,29.77,WNW,302,0.0,12.0,72,0.00,,,0.00,Wunderground v.1.13,2013-08-31 23:34:00,
2013-08-31 18:39:00,84.7,74.7,29.78,WNW,302,0.0,12.0,72,0.00,,,0.00,Wunderground v.1.13,2013-08-31 23:39:00,
2013-08-31 18:44:00,84.5,74.5,29.78,WNW,302,0.0,12.0,72,0.00,,,0.00,Wunderground v.1.13,2013-08-31 23:44:00,
2013-08-31 18:50:00,84.5,74.9,29.78,WNW,302,0.0,12.0,73,0.00,,,0.00,Wunderground v.1.13,2013-08-31 23:50:00,
2013-08-31 18:56:00,84.5,74.9,29.78,WNW,302,0.0,12.0,73,0.00,,,0.00,Wunderground v.1.13,2013-08-31 23:56:00,
2013-08-31 19:01:00,84.3,75.1,29.78,WNW,302,0.0,12.0,74,0.00,,,0.00,Wunderground v.1.13,2013-09-01 00:01:00,
2013-08-31 19:06:00,84.0,74.8,29.77,WNW,302,0.0,12.0,74,0.00,,,0.00,Wunderground v.1.13,2013-09-01 00:06:00,
2013-08-31 19:12:00,83.8,75.0,29.77,WNW,302,0.0,12.0,75,0.00,,,0.00,Wunderground v.1.13,2013-09-01 00:12:00,
2013-08-31 19:17:00,83.6,74.8,29.77,WNW,302,0.0,12.0,75,0.00,,,0.00,Wunderground v.1.13,2013-09-01 00:17:00,
2013-08-31 19:23:00,83.4,74.6,29.77,WNW,302,0.0,12.0,75,0.00,,,0.00,Wunderground v.1.13,2013-09-01 00:23:00,
2013-08-31 19:28:00,83.2,74.8,29.77,WNW,302,0.0,12.0,76,0.00,,,0.00,Wunderground v.1.13,2013-09-01 00:28:00,
2013-08-31 19:33:00,83.0,74.6,29.77,WNW,302,0.0,12.0,76,0.00,,,0.00,Wunderground v.1.13,2013-09-01 00:33:00,
2013-08-31 19:39:00,82.8,74.8,29.78,WNW,302,0.0,12.0,77,0.00,,,0.00,Wunderground v.1.13,2013-09-01 00:39:00,
2013-08-31 19:44:00,82.6,74.7,29.78,WNW,302,0.0,12.0,77,0.00,,,0.00,Wunderground v.1.13,2013-09-01 00:44:00,
2013-08-31 19:50:00,82.4,74.5,29.78,WNW,302,0.0,12.0,77,0.00,,,0.00,Wunderground v.1.13,2013-09-01 00:50:00,
2013-08-31 19:55:00,82.4,74.8,29.77,WNW,302,0.0,12.0,78,0.00,,,0.00,Wunderground v.1.13,2013-09-01 00:55:00,
2013-08-31 20:00:00,82.2,74.7,29.77,WNW,302,0.0,12.0,78,0.00,,,0.00,Wunderground v.1.13,2013-09-01 01:00:00,
2013-08-31 20:05:00,82.0,74.5,29.77,WNW,302,0.0,12.0,78,0.00,,,0.00,Wunderground v.1.13,2013-09-01 01:05:00,
2013-08-31 20:11:00,81.8,74.3,29.78,WNW,302,0.0,12.0,78,0.00,,,0.00,Wunderground v.1.13,2013-09-01 01:11:00,
2013-08-31 20:16:00,81.8,74.6,29.78,WNW,302,0.0,12.0,79,0.00,,,0.00,Wunderground v.1.13,2013-09-01 01:16:00,
2013-08-31 20:21:00,81.8,74.6,29.78,WNW,302,0.0,12.0,79,0.00,,,0.00,Wunderground v.1.13,2013-09-01 01:21:00,
2013-08-31 20:27:00,81.6,74.5,29.78,WNW,302,0.0,12.0,79,0.00,,,0.00,Wunderground v.1.13,2013-09-01 01:27:00,
2013-08-31 20:32:00,81.6,74.8,29.78,WNW,302,0.0,12.0,80,0.00,,,0.00,Wunderground v.1.13,2013-09-01 01:32:00,
2013-08-31 20:38:00,81.6,74.8,29.79,WNW,302,0.0,12.0,80,0.00,,,0.00,Wunderground v.1.13,2013-09-01 01:38:00,
2013-08-31 20:43:00,81.4,74.6,29.79,WNW,302,0.0,12.0,80,0.00,,,0.00,Wunderground v.1.13,2013-09-01 01:43:00,
2013-08-31 20:48:00,81.4,74.6,29.79,WNW,302,0.0,12.0,80,0.00,,,0.00,Wunderground v.1.13,2013-09-01 01:48:00,
2013-08-31 20:53:00,81.4,74.6,29.79,WNW,302,0.0,12.0,80,0.00,,,0.00,Wunderground v.1.13,2013-09-01 01:53:00,
2013-08-31 20:59:00,81.4,75.0,29.79,WNW,302,0.0,12.0,81,0.00,,,0.00,Wunderground v.1.13,2013-09-01 01:59:00,
2013-08-31 21:04:00,81.4,75.0,29.79,WNW,302,0.0,12.0,81,0.00,,,0.00,Wunderground v.1.13,2013-09-01 02:04:00,
2013-08-31 21:10:00,81.2,74.4,29.80,WNW,302,0.0,12.0,80,0.00,,,0.00,Wunderground v.1.13,2013-09-01 02:10:00,
2013-08-31 21:15:00,81.2,74.8,29.80,WNW,302,0.0,12.0,81,0.00,,,0.00,Wunderground v.1.13,2013-09-01 02:15:00,
2013-08-31 21:20:00,81.1,74.7,29.80,WNW,302,0.0,12.0,81,0.00,,,0.00,Wunderground v.1.13,2013-09-01 02:20:00,
2013-08-31 21:25:00,80.9,74.5,29.80,WNW,302,0.0,12.0,81,0.00,,,0.00,Wunderground v.1.13,2013-09-01 02:25:00,
2013-08-31 21:31:00,80.7,74.3,29.80,WNW,302,0.0,12.0,81,0.00,,,0.00,Wunderground v.1.13,2013-09-01 02:31:00,
2013-08-31 21:36:00,80.7,74.3,29.80,WNW,302,0.0,12.0,81,0.00,,,0.00,Wunderground v.1.13,2013-09-01 02:36:00,
2013-08-31 21:41:00,80.5,74.1,29.80,WNW,302,0.0,12.0,81,0.00,,,0.00,Wunderground v.1.13,2013-09-01 02:41:00,
2013-08-31 21:47:00,80.3,73.9,29.80,WNW,302,0.0,12.0,81,0.00,,,0.00,Wunderground v.1.13,2013-09-01 02:47:00,
2013-08-31 21:52:00,80.3,73.9,29.80,WNW,302,0.0,12.0,81,0.00,,,0.00,Wunderground v.1.13,2013-09-01 02:52:00,
2013-08-31 21:57:00,80.1,73.7,29.80,WNW,302,0.0,12.0,81,0.00,,,0.00,Wunderground v.1.13,2013-09-01 02:57:00,
2013-08-31 22:03:00,79.8,73.8,29.80,WNW,302,0.0,12.0,82,0.00,,,0.00,Wunderground v.1.13,2013-09-01 03:03:00,
2013-08-31 22:08:00,79.6,73.6,29.80,WNW,302,0.0,12.0,82,0.00,,,0.00,Wunderground v.1.13,2013-09-01 03:08:00,
2013-08-31 22:13:00,79.4,73.4,29.80,WNW,302,0.0,12.0,82,0.00,,,0.00,Wunderground v.1.13,2013-09-01 03:13:00,
2013-08-31 22:19:00,79.2,73.2,29.80,WNW,302,0.0,12.0,82,0.00,,,0.00,Wunderground v.1.13,2013-09-01 03:19:00,
2013-08-31 22:24:00,79.2,73.2,29.80,WNW,302,0.0,12.0,82,0.00,,,0.00,Wunderground v.1.13,2013-09-01 03:24:00,
2013-08-31 22:29:00,79.0,73.0,29.80,WNW,302,0.0,12.0,82,0.00,,,0.00,Wunderground v.1.13,2013-09-01 03:29:00,
2013-08-31 22:35:00,78.8,73.2,29.80,WNW,302,0.0,12.0,83,0.00,,,0.00,Wunderground v.1.13,2013-09-01 03:35:00,
2013-08-31 22:40:00,78.8,73.2,29.81,WNW,302,0.0,12.0,83,0.00,,,0.00,Wunderground v.1.13,2013-09-01 03:40:00,
2013-08-31 22:46:00,78.6,73.0,29.81,WNW,302,0.0,12.0,83,0.00,,,0.00,Wunderground v.1.13,2013-09-01 03:46:00,
2013-08-31 22:51:00,78.6,73.0,29.81,WNW,302,0.0,12.0,83,0.00,,,0.00,Wunderground v.1.13,2013-09-01 03:51:00,
2013-08-31 22:56:00,78.5,72.9,29.81,WNW,302,0.0,12.0,83,0.00,,,0.00,Wunderground v.1.13,2013-09-01 03:56:00,
2013-08-31 23:01:00,78.5,72.9,29.81,WNW,302,0.0,12.0,83,0.00,,,0.00,Wunderground v.1.13,2013-09-01 04:01:00,
2013-08-31 23:03:00,78.5,72.9,29.81,WNW,302,0.0,12.0,83,0.00,,,0.00,Wunderground v.1.13,2013-09-01 04:03:00,
2013-08-31 23:04:00,78.5,72.9,29.81,WNW,302,0.0,12.0,83,0.00,,,0.00,Wunderground v.1.13,2013-09-01 04:04:00,
2013-08-31 23:05:00,78.3,72.7,29.81,WNW,302,0.0,12.0,83,0.00,,,0.00,Wunderground v.1.13,2013-09-01 04:05:00,
2013-08-31 23:08:00,78.3,72.7,29.81,WNW,302,0.0,12.0,83,0.00,,,0.00,Wunderground v.1.13,2013-09-01 04:08:00,
2013-08-31 23:14:00,78.1,72.9,29.81,WNW,302,0.0,12.0,84,0.00,,,0.00,Wunderground v.1.13,2013-09-01 04:14:00,
2013-08-31 23:19:00,78.1,72.9,29.81,WNW,302,0.0,12.0,84,0.00,,,0.00,Wunderground v.1.13,2013-09-01 04:19:00,
2013-08-31 23:25:00,78.1,72.9,29.81,WNW,302,0.0,12.0,84,0.00,,,0.00,Wunderground v.1.13,2013-09-01 04:25:00,
2013-08-31 23:30:00,77.9,72.7,29.81,WNW,302,0.0,12.0,84,0.00,,,0.00,Wunderground v.1.13,2013-09-01 04:30:00,
2013-08-31 23:36:00,77.9,72.7,29.81,WNW,302,0.0,12.0,84,0.00,,,0.00,Wunderground v.1.13,2013-09-01 04:36:00,
2013-08-31 23:41:00,77.9,72.7,29.81,WNW,302,0.0,12.0,84,0.00,,,0.00,Wunderground v.1.13,2013-09-01 04:41:00,
2013-08-31 23:46:00,77.7,72.5,29.81,WNW,302,0.0,12.0,84,0.00,,,0.00,Wunderground v.1.13,2013-09-01 04:46:00,
2013-08-31 23:52:00,77.7,72.8,29.80,WNW,302,0.0,12.0,85,0.00,,,0.00,Wunderground v.1.13,2013-09-01 04:52:00,
2013-08-31 23:57:00,77.7,72.8,29.80,WNW,302,0.0,12.0,85,0.00,,,0.00,Wunderground v.1.13,2013-09-01 04:57:00,